Location: Croydon
(51.3762°N, 0.0982°W)
Time: 20:20:40
(UTC+00:00)

Envisat - Pass Details

Date: 24 February 2019
Orbit: 764 x 766 km, 98.2° (Epoch: 22 March)

Event Time Altitude Azimuth Distance (km) Brightness Sun altitude
Rises 19:44:13 0° 204° (SSW) 3,223 6.4 -21.4°
Reaches altitude 10° 19:47:01 10° 219° (SW) 2,301 5.8 -21.8°
Maximum altitude 19:50:55 22° 270° (W) 1,634 5.5 -22.4°
Drops below altitude 10° 19:54:50 10° 320° (NW) 2,314 6.2 -23.0°
Sets 19:57:40 0° 336° (NNW) 3,246 6.8 -23.4°
